FW5399 Weather Reports


Display with metric or nautical units.
time (UTC)temp
F
wind
direction
speed
MPH
gust
MPH
rain 1hr
in
rain 24hr
in
rain mn
in
humidity
%
barometer
mb
20260903142103 54 137 0.0 0.0 0.00 0.00 0.00 96 1015.7
20260903141610 54 137 0.0 0.0 0.00 0.00 0.00 95 1015.6
20260903141100 54 137 0.0 0.0 0.00 0.00 0.00 95 1015.6
20260903140559 54 137 0.0 1.0 0.00 0.00 0.00 96 1015.9
20260903140114 54 137 0.0 1.0 0.00 0.00 0.00 96 1015.8
20260903135559 54 137 0.0 1.0 0.00 0.00 0.00 96 1015.8
20260903135101 54 178 0.0 1.0 0.00 0.00 0.00 95 1016.0
20260903134603 54 178 0.0 1.0 0.00 0.00 0.00 96 1016.0
20260903134106 54 177 0.0 1.0 0.00 0.00 0.00 95 1015.9
20260903133610 54 178 0.0 0.0 0.00 0.00 0.00 95 1016.1
20260903133109 54 178 0.0 0.0 0.00 0.00 0.00 95 1016.0
20260903132603 54 178 0.0 1.0 0.00 0.00 0.00 95 1016.1
20260903132056 54 179 0.0 1.0 0.00 0.00 0.00 96 1016.1
20260903131550 54 179 0.0 0.0 0.00 0.00 0.00 95 1016.1
20260903131047 53 179 0.0 0.0 0.00 0.00 0.00 95 1016.2
20260903130545 54 179 0.0 0.0 0.00 0.00 0.00 95 1016.1
20260903130046 54 179 0.0 0.0 0.00 0.00 0.00 94 1016.2
20260903125938 54 179 0.0 0.0 0.00 0.00 0.00 94 1016.2
20260903125043 54 179 0.0 1.0 0.00 0.00 0.00 94 1016.2
20260903124550 54 179 0.0 1.0 0.00 0.00 0.00 94 1016.3
20260903124048 54 178 0.0 1.0 0.00 0.00 0.00 94 1016.3
20260903123548 54 179 0.0 1.0 0.00 0.00 0.00 94 1016.3
20260903123043 54 178 0.0 0.0 0.00 0.00 0.00 94 1016.3
20260903122939 54 178 0.0 0.0 0.00 0.00 0.00 93 1016.2
20260903122040 54 178 0.0 0.0 0.00 0.00 0.00 93 1016.3
20260903121539 54 179 0.0 1.0 0.00 0.00 0.00 93 1016.4
20260903121038 54 179 0.0 1.0 0.00 0.00 0.00 93 1016.7
20260903120537 54 178 0.0 2.0 0.00 0.00 0.00 93 1016.5
20260903120037 54 179 0.0 2.0 0.00 0.00 0.00 93 1016.5
20260903115951 54 236 0.0 0.0 0.00 0.00 0.00 93 1016.7
20260903115432 54 236 0.0 0.0 0.00 0.00 0.00 93 1016.7
20260903114534 54 236 0.0 0.0 0.00 0.00 0.00 93 1016.9
20260903114514 54 236 0.0 0.0 0.00 0.00 0.00 92 1016.8
20260903113708 54 236 0.0 0.0 0.00 0.00 0.00 92 1016.9
20260903112537 54 236 0.0 0.0 0.00 0.00 0.00 92 1016.9
20260903112441 54 236 0.0 0.0 0.00 0.00 0.00 92 1017.0
20260903111535 55 236 0.0 0.0 0.00 0.00 0.00 92 1016.9
20260903111425 55 236 0.0 0.0 0.00 0.00 0.00 92 1017.1
20260903110557 55 236 0.0 0.0 0.00 0.00 0.00 92 1017.1
20260903110030 54 236 0.0 0.0 0.00 0.00 0.00 91 1017.2
20260903105530 54 236 0.0 1.0 0.00 0.00 0.00 91 1017.2
20260903105031 54 236 0.0 1.0 0.00 0.00 0.00 91 1017.2
20260903104528 54 236 0.0 0.0 0.00 0.00 0.00 91 1017.4
20260903104026 54 236 0.0 0.0 0.00 0.00 0.00 91 1017.4
20260903103529 54 236 0.0 0.0 0.00 0.00 0.00 91 1017.2
20260903103405 54 236 0.0 1.0 0.00 0.00 0.00 91 1017.3
20260903102527 54 236 0.0 1.0 0.00 0.00 0.00 91 1017.4
20260903102024 54 296 0.0 1.0 0.00 0.00 0.00 89 1017.5
20260903101525 54 297 0.0 1.0 0.00 0.00 0.00 89 1017.5
20260903101024 54 297 0.0 1.0 0.00 0.00 0.00 89 1017.4
20260903100522 55 297 0.0 1.0 0.00 0.00 0.00 88 1017.6
20260903100017 55 297 0.0 1.0 0.00 0.00 0.00 88 1017.6
20260903095516 55 297 0.0 4.0 0.00 0.00 0.00 87 1017.6
20260903095015 56 297 0.0 4.0 0.00 0.00 0.00 87 1017.7
20260903094514 56 146 0.0 1.0 0.00 0.00 0.00 87 1017.7
20260903094012 56 209 0.0 1.0 0.00 0.00 0.00 86 1017.7
20260903093511 56 209 0.0 1.0 0.00 0.00 0.00 86 1018.0
20260903093009 56 210 0.0 1.0 0.00 0.00 0.00 86 1017.7
20260903092506 56 209 1.0 3.0 0.00 0.00 0.00 86 1017.8
20260903092004 56 209 1.0 3.0 0.00 0.00 0.00 86 1017.6
20260903091508 55 251 0.0 1.0 0.00 0.00 0.00 86 1017.7
20260903091008 56 309 0.0 1.0 0.00 0.00 0.00 85 1017.7
20260903090712 56 309 0.0 1.0 0.00 0.00 0.00 85 1017.6
20260903085501 56 309 0.0 2.0 0.00 0.00 0.00 83 1017.7
20260903085002 56 309 0.0 2.0 0.00 0.00 0.00 83 1017.8
20260903084502 56 319 0.0 1.0 0.00 0.00 0.00 82 1017.6
20260903084355 57 280 0.0 0.0 0.00 0.00 0.00 81 1017.6
20260903083454 57 279 0.0 1.0 0.00 0.00 0.00 80 1017.6
20260903083340 57 281 0.0 2.0 0.00 0.00 0.00 80 1017.7
20260903082441 57 281 0.0 3.0 0.00 0.00 0.00 79 1017.7
20260903082339 58 293 0.0 4.0 0.00 0.00 0.00 79 1017.7
20260903081431 58 248 1.0 8.0 0.00 0.00 0.00 79 1017.5
20260903080924 58 320 1.0 8.0 0.00 0.00 0.00 78 1017.5
20260903080418 58 218 0.0 4.0 0.00 0.00 0.00 78 1017.5
20260903080324 58 310 0.0 4.0 0.00 0.00 0.00 78 1017.6
20260903075822 58 270 0.0 4.0 0.00 0.00 0.00 78 1017.5
20260903074901 58 257 0.0 2.0 0.00 0.00 0.00 78 1017.6
20260903074353 58 255 0.0 4.0 0.00 0.00 0.00 78 1017.6
20260903073847 58 295 1.0 4.0 0.00 0.00 0.00 76 1017.5
20260903073342 58 298 1.0 4.0 0.00 0.00 0.00 77 1017.5
20260903072835 58 357 1.0 4.0 0.00 0.00 0.00 77 1017.4
20260903072502 58 310 1.0 4.0 0.00 0.00 0.00 77 1017.4
20260903071318 58 331 0.0 2.0 0.00 0.00 0.00 78 1017.5
20260903070811 58 252 0.0 2.0 0.00 0.00 0.00 77 1017.5
20260903070306 58 290 0.0 2.0 0.00 0.00 0.00 77 1017.5
20260903065801 58 285 0.0 4.0 0.00 0.00 0.00 77 1017.5
20260903065253 58 308 0.0 4.0 0.00 0.00 0.00 76 1017.3
20260903065149 58 281 0.0 2.0 0.00 0.00 0.00 76 1017.4
20260903064242 58 277 0.0 2.0 0.00 0.00 0.00 75 1017.3
20260903063735 59 251 0.0 3.0 0.00 0.00 0.00 75 1017.0
20260903063231 59 300 0.0 3.0 0.00 0.00 0.00 74 1017.0
20260903062724 59 305 0.0 6.0 0.00 0.00 0.00 74 1017.0
20260903062217 59 318 0.0 6.0 0.00 0.00 0.00 74 1017.0
20260903061711 59 299 0.0 3.0 0.00 0.00 0.00 74 1017.0
20260903061205 59 335 1.0 4.0 0.00 0.00 0.00 74 1016.9
20260903060702 59 327 0.0 4.0 0.00 0.00 0.00 74 1017.0
20260903060153 60 281 0.0 3.0 0.00 0.00 0.00 74 1016.8
20260903060059 60 328 0.0 3.0 0.00 0.00 0.00 73 1016.9
20260903055142 60 296 0.0 3.0 0.00 0.00 0.00 73 1016.9
20260903055034 61 298 0.0 4.0 0.00 0.00 0.00 72 1016.8
20260903054143 61 296 1.0 4.0 0.00 0.00 0.00 72 1016.8
20260903053641 61 311 1.0 6.0 0.00 0.00 0.00 71 1016.9
20260903053142 61 293 1.0 6.0 0.00 0.00 0.00 71 1016.9
20260903053104 62 300 0.0 4.0 0.00 0.00 0.00 70 1016.9
20260903052140 62 2 0.0 3.0 0.00 0.00 0.00 69 1016.9
20260903051640 62 315 0.0 4.0 0.00 0.00 0.00 67 1016.8
20260903051142 62 296 0.0 4.0 0.00 0.00 0.00 67 1016.8
20260903050647 63 238 0.0 3.0 0.00 0.00 0.00 67 1016.8
20260903050525 63 344 0.0 3.0 0.00 0.00 0.00 67 1016.7
20260903045639 63 337 0.0 3.0 0.00 0.00 0.00 66 1016.7
20260903045138 64 293 1.0 7.0 0.00 0.00 0.00 65 1016.7
20260903044635 64 303 1.0 7.0 0.00 0.00 0.00 64 1016.5
20260903044134 65 273 0.0 4.0 0.00 0.00 0.00 62 1016.4
20260903043634 66 302 0.0 2.0 0.00 0.00 0.00 62 1016.4
20260903043339 67 306 0.0 2.0 0.00 0.00 0.00 62 1016.3
20260903042131 67 342 1.0 5.0 0.00 0.00 0.00 61 1016.4
20260903041631 67 326 1.0 4.0 0.00 0.00 0.00 59 1016.4
20260903041132 67 333 1.0 5.0 0.00 0.00 0.00 58 1016.3
20260903040630 67 307 1.0 6.0 0.00 0.00 0.00 57 1016.5
20260903040131 68 320 0.0 6.0 0.00 0.00 0.00 55 1016.5
20260903035630 68 253 0.0 3.0 0.00 0.00 0.00 58 1016.5
20260903035313 67 331 1.0 5.0 0.00 0.00 0.00 57 1016.5
20260903034530 68 324 1.0 4.0 0.00 0.00 0.00 56 1016.7
20260903033630 69 284 1.0 4.0 0.00 0.00 0.00 57 1016.7
20260903033132 69 291 1.0 4.0 0.00 0.00 0.00 56 1016.8
20260903032630 69 266 1.0 4.0 0.00 0.00 0.00 58 1016.8
20260903032129 69 307 1.0 4.0 0.00 0.00 0.00 57 1016.8
20260903031629 69 291 1.0 3.0 0.00 0.00 0.00 58 1016.9
20260903031136 69 357 1.0 6.0 0.00 0.00 0.00 59 1016.9
20260903030632 68 315 1.0 6.0 0.00 0.00 0.00 58 1016.8
20260903030127 69 303 1.0 4.0 0.00 0.00 0.00 56 1016.9
20260903030059 69 326 1.0 4.0 0.00 0.00 0.00 55 1016.9
20260903025122 69 298 1.0 4.0 0.00 0.00 0.00 55 1017.0
20260903024614 69 310 1.0 5.0 0.00 0.00 0.00 59 1016.8
20260903024108 68 301 1.0 6.0 0.00 0.00 0.00 61 1017.0
20260903023602 69 243 1.0 6.0 0.00 0.00 0.00 57 1016.9
20260903023057 69 319 1.0 5.0 0.00 0.00 0.00 57 1016.9
20260903023005 69 310 1.0 5.0 0.00 0.00 0.00 61 1016.9
20260903022044 68 293 1.0 5.0 0.00 0.00 0.00 60 1016.9
20260903021538 67 14 0.0 5.0 0.00 0.00 0.00 60 1016.9
20260903021035 66 238 0.0 3.0 0.00 0.00 0.00 60 1016.9
20260903020527 66 340 0.0 3.0 0.00 0.00 0.00 56 1016.9
20260903020024 66 312 1.0 10.0 0.00 0.00 0.00 56 1016.9
20260903015513 66 326 2.0 10.0 0.00 0.00 0.00 53 1016.9
20260903015428 67 348 2.0 13.0 0.00 0.00 0.00 56 1017.0
20260903014502 67 329 2.0 13.0 0.00 0.00 0.00 53 1017.0
20260903013956 68 231 1.0 4.0 0.00 0.00 0.00 53 1017.1
20260903013452 68 287 1.0 3.0 0.00 0.00 0.00 55 1017.4
20260903012945 67 311 2.0 9.0 0.00 0.00 0.00 54 1017.6
20260903012438 68 239 2.0 9.0 0.00 0.00 0.00 55 1017.6
20260903012110 69 316 1.0 4.0 0.00 0.00 0.00 54 1017.7
20260903010921 67 284 1.0 6.0 0.00 0.00 0.00 61 1017.8
20260903010420 66 268 1.0 6.0 0.00 0.00 0.00 61 1017.9
20260903005908 67 227 1.0 3.0 0.00 0.00 0.00 56 1018.0
20260903005403 66 295 1.0 4.0 0.00 0.00 0.00 57 1018.1
20260903005306 65 218 1.0 4.0 0.00 0.00 0.00 56 1018.1
20260903004814 66 279 0.0 2.0 0.00 0.00 0.00 57 1018.4
20260903003844 67 275 0.0 3.0 0.00 0.00 0.00 59 1018.5
20260903003338 67 1 1.0 6.0 0.00 0.00 0.00 57 1018.5
20260903003301 67 274 1.0 6.0 0.00 0.00 0.00 55 1018.5
20260903002326 67 215 1.0 4.0 0.00 0.00 0.00 56 1018.7
20260903002221 66 5 0.0 4.0 0.00 0.00 0.00 61 1018.8
20260903001318 68 305 0.0 3.0 0.00 0.00 0.00 60 1018.9
20260903000809 67 307 1.0 3.0 0.00 0.00 0.00 63 1018.9
20260903000303 67 326 1.0 3.0 0.00 0.00 0.00 62 1018.9
20260902235756 66 347 1.0 3.0 0.00 0.00 0.00 63 1019.0
20260902235251 66 283 1.0 3.0 0.00 0.00 0.00 62 1019.0
20260902234745 67 286 0.0 2.0 0.00 0.00 0.00 64 1019.1
20260902234239 65 348 0.0 5.0 0.00 0.00 0.00 64 1019.2
20260902233732 65 238 0.0 3.0 0.00 0.00 0.00 63 1019.1
20260902233226 65 187 1.0 3.0 0.00 0.00 0.00 65 1019.1
20260902232722 64 217 0.0 3.0 0.00 0.00 0.00 64 1019.2
20260902232214 65 229 0.0 3.0 0.00 0.00 0.00 66 1019.3
20260902232109 64 304 1.0 3.0 0.00 0.00 0.00 67 1019.2
20260902231208 63 250 0.0 2.0 0.00 0.00 0.00 67 1019.1
20260902230709 64 225 0.0 2.0 0.00 0.00 0.00 65 1019.1
20260902230209 63 233 0.0 2.0 0.00 0.00 0.00 66 1019.3
20260902225708 63 255 0.0 2.0 0.00 0.00 0.00 68 1019.5
20260902225208 62 239 0.0 3.0 0.00 0.00 0.00 69 1019.6
20260902224840 61 215 1.0 3.0 0.00 0.00 0.00 69 1019.6
20260902223704 60 125 2.0 5.0 0.00 0.00 0.00 72 1019.6
20260902223205 59 191 1.0 5.0 0.00 0.00 0.00 72 1019.6
20260902222703 60 178 1.0 3.0 0.00 0.00 0.00 71 1019.7
20260902222202 59 138 1.0 4.0 0.00 0.00 0.00 73 1019.8
20260902221709 59 202 1.0 4.0 0.00 0.00 0.00 72 1019.9
20260902221210 59 200 1.0 5.0 0.00 0.00 0.00 74 1019.8
20260902220711 58 183 2.0 5.0 0.00 0.00 0.00 75 1019.8
20260902220206 58 158 1.0 4.0 0.00 0.00 0.00 75 1019.9
20260902215704 58 186 1.0 4.0 0.00 0.00 0.00 75 1020.0
20260902215205 59 182 0.0 2.0 0.00 0.00 0.00 74 1020.0
20260902214848 59 181 0.0 2.0 0.00 0.00 0.00 74 1020.2
20260902213701 58 122 1.0 4.0 0.00 0.00 0.00 77 1020.1
20260902213611 57 241 1.0 4.0 0.00 0.00 0.00 75 1020.0
20260902212703 58 198 1.0 4.0 0.00 0.00 0.00 75 1020.0
20260902212201 58 199 1.0 3.0 0.00 0.00 0.00 76 1020.1
20260902211702 58 151 1.0 3.0 0.00 0.00 0.00 75 1020.1
20260902211638 57 186 0.0 2.0 0.00 0.00 0.00 78 1020.2
20260902210659 57 182 0.0 2.0 0.00 0.00 0.00 75 1020.0
20260902210414 56 182 0.0 2.0 0.00 0.00 0.00 77 1020.0
20260902205159 56 206 0.0 1.0 0.00 0.00 0.00 84 1020.2
20260902204700 54 206 0.0 1.0 0.00 0.00 0.00 86 1020.1
20260902204604 53 206 0.0 1.0 0.00 0.00 0.00 89 1020.1
20260902203658 52 206 0.0 1.0 0.00 0.00 0.00 91 1020.1
20260902203154 51 206 0.0 1.0 0.00 0.00 0.00 94 1020.1
20260902202650 50 206 0.0 0.0 0.00 0.00 0.00 100 1020.2
20260902202341 49 206 0.0 1.0 0.00 0.00 0.00 100 1020.1
20260902201146 48 206 0.0 0.0 0.00 0.00 0.00 100 1020.0
20260902200646 47 206 0.0 0.0 0.00 0.00 0.00 100 1020.0
20260902200150 46 206 0.0 0.0 0.00 0.00 0.00 100 1020.0
20260902195649 45 206 0.0 0.0 0.00 0.00 0.00 100 1020.1
20260902195147 44 206 0.0 0.0 0.00 0.00 0.00 100 1020.0
20260902194643 43 206 0.0 0.0 0.00 0.00 0.00 100 1019.8
20260902194522 42 206 0.0 0.0 0.00 0.00 0.00 100 1019.8
20260902193637 41 206 0.0 0.0 0.00 0.00 0.00 100 1019.6
20260902193136 40 206 0.0 0.0 0.00 0.00 0.00 99 1019.7
20260902192635 40 206 0.0 0.0 0.00 0.00 0.00 99 1019.8
20260902192135 39 206 0.0 0.0 0.00 0.00 0.00 99 1019.7
20260902191634 39 205 0.0 0.0 0.00 0.00 0.00 99 1019.7
20260902191132 38 205 0.0 0.0 0.00 0.00 0.00 99 1019.6
20260902190632 38 205 0.0 0.0 0.00 0.00 0.00 98 1019.4
20260902190128 38 205 0.0 0.0 0.00 0.00 0.00 99 1019.3
20260902185624 38 205 0.0 0.0 0.00 0.00 0.00 98 1019.2
20260902185128 38 205 0.0 0.0 0.00 0.00 0.00 98 1019.2
20260902184628 38 205 0.0 0.0 0.00 0.00 0.00 98 1019.1
20260902184123 38 205 0.0 0.0 0.00 0.00 0.00 98 1019.1
20260902183622 39 205 0.0 0.0 0.00 0.00 0.00 99 1019.1
20260902183116 39 205 0.0 1.0 0.00 0.00 0.00 99 1019.0
20260902182611 39 205 0.0 1.0 0.00 0.00 0.00 99 1019.0
20260902182103 38 272 0.0 0.0 0.00 0.00 0.00 98 1019.0
20260902181558 38 272 0.0 0.0 0.00 0.00 0.00 98 1018.9
20260902181051 38 272 0.0 0.0 0.00 0.00 0.00 98 1018.9
20260902180545 38 272 0.0 0.0 0.00 0.00 0.00 98 1018.9
20260902180041 38 272 0.0 0.0 0.00 0.00 0.00 98 1018.9
20260902175929 38 272 0.0 0.0 0.00 0.00 0.00 98 1019.0
20260902175028 39 272 0.0 0.0 0.00 0.00 0.00 98 1018.9
20260902174903 39 272 0.0 1.0 0.00 0.00 0.00 98 1019.0
20260902174015 39 272 0.0 1.0 0.00 0.00 0.00 98 1018.9
20260902173511 39 273 0.0 0.0 0.00 0.00 0.00 98 1019.0
20260902173004 39 273 0.0 0.0 0.00 0.00 0.00 98 1018.9
20260902172457 40 273 0.0 0.0 0.00 0.00 0.00 98 1018.9
20260902171952 40 273 0.0 0.0 0.00 0.00 0.00 98 1018.8
20260902171446 40 273 0.0 0.0 0.00 0.00 0.00 98 1018.6
20260902170941 40 273 0.0 0.0 0.00 0.00 0.00 98 1018.5
20260902170446 40 272 0.0 0.0 0.00 0.00 0.00 98 1018.4
20260902165927 40 272 0.0 0.0 0.00 0.00 0.00 98 1018.4
20260902165423 40 273 0.0 0.0 0.00 0.00 0.00 98 1018.4
20260902164916 40 273 0.0 0.0 0.00 0.00 0.00 98 1018.5
20260902164411 40 272 0.0 0.0 0.00 0.00 0.00 98 1018.5
20260902163911 40 272 0.0 0.0 0.00 0.00 0.00 98 1018.4
20260902163413 40 272 0.0 0.0 0.00 0.00 0.00 97 1018.4
20260902162911 40 272 0.0 0.0 0.00 0.00 0.00 97 1018.5
20260902162411 40 272 0.0 0.0 0.00 0.00 0.00 97 1018.4
20260902162311 40 272 0.0 0.0 0.00 0.00 0.00 97 1018.3
20260902161411 40 273 0.0 0.0 0.00 0.00 0.00 97 1018.3
20260902160913 40 273 0.0 0.0 0.00 0.00 0.00 97 1018.2
20260902160410 40 273 0.0 0.0 0.00 0.00 0.00 97 1018.3
20260902155910 40 272 0.0 0.0 0.00 0.00 0.00 97 1018.1
20260902155409 40 273 0.0 0.0 0.00 0.00 0.00 97 1018.3
20260902154906 41 272 0.0 0.0 0.00 0.00 0.00 97 1018.1
20260902154805 41 272 0.0 0.0 0.00 0.00 0.00 97 1018.1
20260902153902 41 273 0.0 0.0 0.00 0.00 0.00 97 1018.1
20260902153407 41 273 0.0 0.0 0.00 0.00 0.00 97 1018.1
20260902152901 41 272 0.0 1.0 0.00 0.00 0.00 97 1018.0
20260902152401 41 272 0.0 1.0 0.00 0.00 0.00 97 1018.1
20260902151902 41 273 0.0 0.0 0.00 0.00 0.00 97 1018.1
20260902151356 41 273 0.0 0.0 0.00 0.00 0.00 97 1018.2
20260902150856 41 272 0.0 0.0 0.00 0.00 0.00 96 1018.2
20260902150755 42 273 0.0 0.0 0.00 0.00 0.00 97 1018.3
20260902145855 41 273 0.0 0.0 0.00 0.00 0.00 96 1018.4
20260902145357 41 272 0.0 0.0 0.00 0.00 0.00 96 1018.6
20260902144857 42 272 0.0 0.0 0.00 0.00 0.00 95 1018.6
20260902144356 42 272 0.0 0.0 0.00 0.00 0.00 95 1018.6
20260902143900 42 272 0.0 0.0 0.00 0.00 0.00 96 1018.6
20260902143355 43 272 0.0 0.0 0.00 0.00 0.00 96 1018.6
20260902142855 43 272 0.0 0.0 0.00 0.00 0.00 96 1018.6